Location: Newark
(44.2003°N, 3.2583°E)
Time: 22:23:24
(UTC+00:00)

Altair - All Passes

Search period start: 15 October 2019 00:00
Search period end: 25 October 2019 00:00
Orbit: 1501 x 1683 km, 47.2° (Epoch: 14 October)

Date Brightness Start Highest point End Pass type
(mag) Time Alt. Az. Time Alt. Az. Time Alt. Az.
15 Oct - 10:26:41 10° S 10:34:25 29° SE 10:42:23 10° ENE daylight
15 Oct - 12:28:28 10° SW 12:38:04 74° SSE 12:48:04 10° ENE daylight
15 Oct - 14:33:17 10° W 14:43:09 76° N 14:53:20 10° E daylight
15 Oct - 16:38:31 10° WNW 16:48:36 89° NNE 16:58:50 10° ESE daylight
15 Oct - 18:43:35 10° WNW 18:53:01 46° SW 19:02:29 10° SSE visible
15 Oct - 20:52:12 10° W 20:55:53 12° WSW 20:59:34 10° SW visible
16 Oct - 10:01:58 10° S 10:09:22 26° SE 10:16:59 10° ENE daylight
16 Oct - 12:03:22 10° SW 12:12:54 71° SSE 12:22:49 10° ENE daylight
16 Oct - 14:08:04 10° W 14:17:54 76° N 14:28:05 10° E daylight
16 Oct - 16:13:19 10° WNW 16:23:22 86° NNE 16:33:36 10° ESE daylight
16 Oct - 18:18:21 10° WNW 18:27:53 50° SW 18:37:29 10° SSE visible
16 Oct - 20:26:08 10° W 20:30:52 14° WSW 20:35:37 10° SSW visible
17 Oct - 09:37:18 10° S 09:44:20 24° SE 09:51:33 10° E daylight
17 Oct - 11:38:18 10° SW 11:47:44 67° SSE 11:57:35 10° ENE daylight
17 Oct - 13:42:51 10° W 13:52:39 77° N 14:02:48 10° ENE daylight
17 Oct - 15:48:07 10° WNW 15:58:07 84° NNE 16:08:21 10° ESE daylight
17 Oct - 17:53:06 10° WNW 18:02:44 53° SW 18:12:27 10° SE visible
17 Oct - 20:00:19 10° W 20:05:51 16° WSW 20:11:23 10° SSW visible
18 Oct - 09:12:42 10° S 09:19:19 22° SE 09:26:05 10° E daylight
18 Oct - 11:13:14 10° SW 11:22:35 63° SSE 11:32:20 10° ENE daylight
18 Oct - 13:17:38 10° W 13:27:24 79° N 13:37:32 10° ENE daylight
18 Oct - 15:22:54 10° WNW 15:32:53 82° NNE 15:43:06 10° ESE daylight
18 Oct - 17:27:53 10° WNW 17:37:35 56° SW 17:47:24 10° SE visible
18 Oct - 19:34:39 10° W 19:40:49 18° SW 19:47:01 10° SSW visible
19 Oct - 08:48:11 10° SSE 08:54:18 19° SE 09:00:32 10° E daylight
19 Oct - 10:48:12 10° SW 10:57:27 60° SE 11:07:06 10° ENE daylight
19 Oct - 12:52:26 10° W 13:02:10 80° NNW 13:12:17 10° ENE daylight
19 Oct - 14:57:42 10° WNW 15:07:39 81° NNE 15:17:51 10° E daylight
19 Oct - 17:02:40 10° WNW 17:12:26 60° SW 17:22:20 10° SE daylight
19 Oct - 19:09:04 10° W 19:15:47 20° SW 19:22:31 10° SSW visible
20 Oct - 08:23:46 10° SSE 08:29:18 17° SE 08:34:56 10° E daylight
20 Oct - 10:23:11 10° SW 10:32:20 56° SE 10:41:51 10° ENE daylight
20 Oct - 12:27:15 10° WSW 12:36:57 82° NNW 12:47:01 10° ENE daylight
20 Oct - 14:32:30 10° WNW 14:42:23 79° N 14:52:35 10° E daylight
20 Oct - 16:37:28 10° WNW 16:47:16 63° SSW 16:57:14 10° SE daylight
20 Oct - 18:43:34 10° W 18:50:43 22° SW 18:57:56 10° S visible
21 Oct - 07:59:28 10° SSE 08:04:18 15° ESE 08:09:12 10° E daylight
21 Oct - 09:58:12 10° SW 10:07:12 53° SE 10:16:36 10° ENE daylight
21 Oct - 12:02:04 10° WSW 12:11:43 84° NNW 12:21:46 10° ENE daylight
21 Oct - 14:07:17 10° WNW 14:17:09 78° N 14:27:19 10° E daylight
21 Oct - 16:12:16 10° WNW 16:22:06 67° SSW 16:32:08 10° SE daylight
21 Oct - 18:18:08 10° W 18:25:40 25° SW 18:33:16 10° S visible
22 Oct - 07:35:22 10° SSE 07:39:19 13° ESE 07:43:18 10° E daylight
22 Oct - 09:33:14 10° SSW 09:42:06 49° SE 09:51:21 10° ENE daylight
22 Oct - 11:36:53 10° WSW 11:46:29 86° NNW 11:56:31 10° ENE daylight
22 Oct - 13:42:05 10° W 13:51:54 77° N 14:02:02 10° E daylight
22 Oct - 15:47:04 10° WNW 15:56:55 70° SSW 16:06:59 10° SE daylight
22 Oct - 17:52:44 10° WNW 18:00:36 27° SW 18:08:33 10° S visible
23 Oct - 07:11:39 10° SE 07:14:20 11° ESE 07:17:01 10° ESE daylight
23 Oct - 09:08:18 10° SSW 09:17:01 46° SE 09:26:04 10° ENE daylight
23 Oct - 11:11:43 10° WSW 11:21:16 88° NNW 11:31:16 10° ENE daylight
23 Oct - 13:16:53 10° W 13:26:39 76° N 13:36:46 10° E daylight
23 Oct - 15:21:53 10° WNW 15:31:44 74° SSW 15:41:50 10° SE daylight
23 Oct - 17:27:22 10° WNW 17:35:32 30° SW 17:43:47 10° S visible
24 Oct - 08:43:23 10° SSW 08:51:56 42° SE 09:00:48 10° ENE daylight
24 Oct - 10:46:33 10° WSW 10:56:04 89° S 11:06:02 10° ENE daylight
24 Oct - 12:51:41 10° W 13:01:24 75° N 13:11:29 10° E daylight
24 Oct - 14:56:41 10° WNW 15:06:33 77° SSW 15:16:40 10° SE daylight
24 Oct - 17:02:02 10° WNW 17:10:27 32° SW 17:18:58 10° S visible
